Theta_e
339 340 340 340 340 340 339 336 329 326 324 328 326 331 333 332 332 328 329 331 330 328 328 327 327 328 329 329 330 332 334 336 338 337 338 339 339 339
338 338 339 339 340 339 338 337 334 329 323 326 323 324 326 328 330 326 327 328 328 326 325 325 325 326 326 327 328 330 331 333 334 333 333 333 333 334
335 336 338 339 337 338 337 336 332 326 319 320 322 321 320 321 321 322 323 322 323 324 323 323 322 323 323 323 323 325 327 328 329 329 330 330 331 331
331 330 332 339 337 336 335 331 330 325 322 316 318 317 317 318 319 319 320 322 320 323 322 321 320 320 320 319 318 318 318 321 323 324 326 327 327 327
325 325 326 331 333 331 330 329 324 322 322 318 315 317 316 317 316 317 317 318 320 323 321 320 320 320 319 317 315 313 312 313 314 316 318 320 321 321
322 323 323 324 329 329 327 325 323 320 318 316 315 315 316 317 317 315 314 314 313 318 319 318 319 320 319 318 316 315 312 310 310 311 311 311 313 316
321 321 323 328 329 331 326 321 320 319 317 316 315 315 314 314 314 314 316 312 314 314 311 315 312 311 313 317 317 315 313 312 310 310 309 308 308 310
322 322 323 325 325 325 326 328 322 317 315 314 313 311 314 314 315 316 318 315 314 319 315 313 317 312 310 308 315 313 312 311 310 309 309 308 307 307
320 321 319 319 321 318 317 319 322 325 324 318 315 314 313 317 316 320 318 317 317 316 315 315 315 310 309 311 314 312 311 310 310 309 308 308 306 305
319 320 315 311 313 311 306 304 304 311 318 322 320 317 315 316 319 317 317 314 315 317 318 309 313 311 310 310 314 313 310 309 309 308 308 306 305 304
312 315 316 308 313 315 306 303 301 301 310 313 312 312 313 314 314 313 313 314 311 313 317 314 312 313 309 306 307 313 311 309 308 308 308 306 304 303
308 305 311 308 309 312 308 304 303 305 305 305 305 307 310 314 316 309 307 304 306 310 310 313 313 310 305 307 305 308 309 308 307 306 306 305 303 298
308 304 302 307 306 307 313 314 309 311 314 310 309 310 311 310 307 306 306 306 305 304 309 309 306 307 305 304 304 305 304 302 304 303 304 303 302 301
307 305 301 303 302 303 304 304 305 306 304 306 310 307 310 308 307 305 306 306 307 306 307 307 304 302 301 300 304 305 304 305 302 302 302 303 303 304
306 305 303 301 300 302 304 305 305 303 306 303 301 301 302 302 304 307 307 308 308 310 311 309 304 303 301 300 301 304 306 307 305 304 304 303 302 300
308 304 304 303 306 307 304 304 303 303 303 302 302 302 303 305 304 301 300 304 305 306 311 309 307 305 301 301 301 299 301 303 307 306 307 307 305 304
302 302 305 303 302 302 302 303 302 302 304 303 303 303 302 302 301 302 300 301 298 303 305 308 309 308 307 305 303 302 305 302 306 307 307 305 306 309
302 304 303 303 304 304 305 305 304 307 305 304 303 302 301 299 298 300 302 299 299 299 299 305 306 306 302 303 313 304 303 298 300 305 305 303 301 302
301 302 304 304 306 309 309 305 301 305 303 306 304 302 302 303 299 299 302 300 301 298 298 299 300 299 297 295 300 309 301 299 298 297 298 299 298 299
302 302 304 309 311 307 306 306 304 303 303 306 303 303 303 301 301 301 300 300 299 298 298 299 300 302 300 297 297 299 303 298 298 297 298 299 301 306
301 302 303 305 310 309 307 307 305 305 306 304 303 305 303 306 301 302 301 303 301 299 298 298 302 308 303 302 298 298 301 305 304 301 299 298 296 296
306 304 304 306 312 311 309 307 305 302 303 303 303 304 305 303 302 303 301 301 300 299 299 301 305 303 300 299 297 297 299 303 306 307 307 305 298 294
307 309 308 310 310 311 309 307 306 306 305 305 304 307 310 306 305 303 302 302 301 300 300 298 298 299 299 300 301 298 298 298 298 300 299 304 305 306
Wind_Speed
5 5 2 2 1 3 3 5 5 4 2 2 2 5 5 6 10 7 8 14 15 14 13 13 13 12 13 13 13 13 11 9 13 15 15 17 19 19
4 6 6 4 4 3 4 3 3 5 4 2 4 3 6 6 10 8 8 12 14 13 12 12 13 13 13 15 16 17 16 16 16 17 17 16 16 17
7 8 7 6 5 4 4 4 6 7 6 4 3 4 4 6 6 6 5 4 5 11 12 13 13 13 13 14 14 15 17 19 19 19 18 16 14 14
8 7 8 5 7 6 6 7 6 4 7 10 2 2 4 4 4 5 3 3 3 9 11 12 12 12 13 12 13 14 14 14 14 14 14 14 15 15
6 6 6 6 6 6 6 6 6 7 6 7 4 2 2 1 3 3 3 3 3 9 10 10 11 12 12 11 12 12 12 12 12 13 13 13 14 14
6 6 6 6 6 6 6 6 7 8 8 7 5 3 2 2 2 2 1 1 1 1 4 6 8 11 12 11 11 11 10 10 10 11 11 12 13 13
5 6 7 12 16 9 4 5 6 7 6 6 4 2 2 2 3 3 3 2 2 3 3 2 2 2 3 8 10 11 10 10 10 10 9 9 9 10
5 3 5 8 12 15 15 8 7 7 6 4 3 3 3 3 3 3 3 3 2 3 4 4 4 4 3 2 10 10 9 9 9 8 8 8 8 8
6 5 6 6 7 7 11 14 14 7 6 6 5 4 4 5 5 3 2 3 3 2 3 3 4 3 3 3 8 9 9 8 8 8 7 7 6 6
6 6 6 6 6 7 7 9 7 7 6 6 6 5 4 4 3 3 4 2 2 0 3 3 3 3 3 3 10 9 10 8 6 6 7 8 7 6
6 6 6 6 6 6 7 7 6 5 6 8 7 7 8 8 6 3 3 1 2 2 2 3 2 3 2 2 4 10 9 9 9 8 8 8 7 8
4 5 8 4 7 6 6 6 5 3 3 3 4 5 6 5 7 6 3 3 2 3 2 2 1 4 1 2 4 4 4 9 10 11 11 9 7 3
4 2 2 4 5 7 7 5 5 2 3 3 2 1 1 2 2 3 4 4 3 1 4 3 1 1 2 2 2 4 4 3 5 4 8 10 10 8
5 3 3 4 2 3 4 4 5 3 1 1 2 2 4 3 3 1 1 2 3 4 2 3 2 2 2 0 2 2 3 4 4 5 5 7 11 11
5 7 8 5 2 2 3 3 3 2 0 3 5 4 4 4 3 1 3 3 3 2 3 2 3 1 2 2 2 2 3 5 6 6 4 4 5 5
7 5 5 5 4 3 2 1 2 3 3 4 3 2 1 2 1 2 1 1 1 3 4 5 4 2 1 2 2 2 3 3 3 4 4 4 4 6
5 3 2 2 2 2 2 2 2 2 2 1 2 1 2 2 1 1 0 1 2 1 2 2 5 4 4 3 3 2 3 2 2 4 4 4 4 7
3 4 4 4 4 4 4 4 4 4 3 2 2 2 3 2 1 1 1 1 0 0 2 3 2 2 4 4 9 4 3 3 3 2 3 2 4 4
4 4 5 5 5 6 6 5 5 5 5 4 3 3 3 3 2 1 2 2 2 3 3 3 3 4 2 3 5 5 4 2 1 2 4 4 4 5
4 5 5 5 5 6 6 5 5 5 4 4 4 4 4 3 2 3 3 3 4 3 2 2 3 4 5 7 5 5 10 4 4 3 4 2 4 7
5 5 5 5 4 5 5 5 6 5 5 4 4 4 4 4 4 4 4 5 4 3 3 5 7 10 2 4 1 4 5 13 10 7 5 3 3 2
7 8 8 7 7 5 6 6 6 5 5 5 5 5 5 4 4 4 4 2 2 4 4 4 5 1 2 2 4 4 5 6 7 16 10 11 6 5
5 6 6 6 6 6 7 6 6 5 5 6 5 4 5 4 5 5 3 3 1 1 2 3 3 1 1 2 3 3 4 4 2 4 4 12 11 12
Wind_Direction
352 356 346 330 84 143 118 152 139 136 104 98 89 16 61 77 86 75 76 84 85 80 79 77 77 71 65 56 44 32 27 20 82 69 67 72 73 74
4 4 14 7 57 83 136 113 105 124 116 83 58 58 59 76 85 71 83 83 89 88 82 79 75 69 63 56 51 46 51 57 76 74 66 67 70 72
17 14 21 33 39 41 69 101 89 100 118 88 71 50 57 76 71 71 65 62 78 87 80 73 68 64 62 59 55 51 53 57 58 64 62 58 64 73
31 19 14 31 59 57 58 62 85 99 127 126 107 85 70 71 82 83 68 59 63 80 83 82 81 76 67 63 58 53 51 54 55 56 62 64 69 70
36 30 14 27 65 67 63 82 87 94 110 125 117 96 101 92 72 63 72 70 83 98 92 96 93 89 85 75 64 57 53 52 54 55 59 61 66 73
47 38 34 39 55 76 76 75 109 109 112 117 110 111 105 115 107 130 110 81 178 260 121 113 110 109 104 98 89 81 71 65 60 61 61 61 60 64
61 56 44 62 62 72 98 92 91 107 115 123 116 112 122 141 179 184 168 166 220 146 127 137 136 101 116 124 122 114 102 94 86 80 76 76 79 78
103 66 54 47 59 58 65 94 118 125 124 119 113 143 154 175 169 176 168 140 196 180 158 192 180 167 168 185 141 127 122 120 116 110 104 101 98 97
65 80 55 37 47 57 44 57 59 101 146 142 144 165 161 179 160 181 161 196 208 188 126 153 164 159 197 157 151 144 144 148 145 139 131 125 122 120
65 86 84 55 31 79 68 62 50 50 60 86 104 108 114 104 139 167 173 159 52 206 121 156 159 198 167 157 180 179 170 169 171 169 162 161 166 169
70 54 91 73 32 104 95 92 74 55 36 70 107 121 114 97 82 77 13 94 260 226 43 146 221 134 147 181 215 197 193 188 189 199 205 199 195 193
84 77 73 85 61 71 128 127 116 175 118 62 35 39 51 64 87 97 137 96 103 61 301 119 134 130 299 230 200 195 202 215 208 209 213 217 221 224
139 127 106 72 65 69 141 160 174 154 175 162 140 66 29 35 11 96 104 117 103 134 251 105 25 48 117 197 221 199 189 207 215 227 228 229 223 202
158 158 163 117 109 118 97 103 70 53 9 235 212 237 186 199 250 254 102 113 155 176 215 108 149 131 126 33 251 187 207 217 187 214 216 227 232 228
148 164 159 151 91 18 151 128 43 331 133 103 137 175 183 176 165 307 318 261 273 247 209 164 139 167 139 185 235 201 179 227 198 209 200 212 217 200
130 141 168 177 217 262 241 231 195 145 124 138 152 181 142 76 137 189 135 105 234 286 280 214 206 164 273 219 162 270 201 246 192 199 200 230 222 218
135 120 170 209 233 249 251 254 238 91 82 98 90 73 69 97 172 247 167 1 101 213 240 280 257 228 231 214 305 281 323 333 259 186 167 249 250 233
119 183 204 206 206 218 221 231 195 150 169 127 131 129 131 165 203 327 233 200 121 220 188 250 240 5 344 303 203 228 222 210 228 179 196 185 278 267
177 204 213 208 214 211 215 193 181 184 166 138 153 181 164 189 247 266 244 207 192 219 233 199 168 174 221 229 282 224 193 237 272 289 198 191 217 257
184 204 222 228 236 208 175 169 173 166 171 168 187 184 190 187 210 238 239 203 205 229 263 273 231 217 190 211 205 250 195 201 189 238 258 250 243 269
204 228 222 241 250 204 153 163 157 169 185 168 202 199 210 191 226 225 247 237 213 215 240 260 253 235 218 84 9 278 275 218 202 198 225 181 228 282
207 216 223 229 231 182 153 151 160 166 171 183 208 208 214 193 204 226 222 209 231 231 245 277 301 3 66 193 247 268 298 298 271 222 209 187 170 207
229 224 217 216 196 170 165 169 174 186 193 204 210 209 207 215 217 199 232 253 187 335 236 305 341 38 236 217 233 255 263 271 263 283 254 218 209 229